When you browse on this site, cookies collect data to enhance your experience and personalize the content and advertising you see.
Visit our Privacy Policy to learn more. By continuing to use the site, you agree to this use of cookies and data.
EN

Hourly Weather Adelaide

Today, 4 August, Tuesday

Time Temperature Precipitation Wind Pressure Humidity
00:00 +6°C° 0 mm 4 mps 760 mmHg 83%
01:00 +6°C° 0 mm 4 mps 760 mmHg 82%
02:00 +7°C° 0 mm 3 mps 760 mmHg 82%
03:00 +7°C° 0 mm 3 mps 760 mmHg 81%
04:00 +7°C° 0 mm 3 mps 760 mmHg 79%
05:00 +7°C° 0 mm 3 mps 760 mmHg 77%
06:00 +6°C° 0 mm 4 mps 760 mmHg 75%
07:00 +7°C° 0 mm 4 mps 760 mmHg 69%
08:00 +7°C° 0 mm 4 mps 761 mmHg 63%
09:00 +10°C° 0 mm 3 mps 761 mmHg 57%
10:00 +10°C° 0 mm 4 mps 761 mmHg 55%
11:00 +11°C° 0 mm 4 mps 761 mmHg 53%
12:00 +12°C° 0 mm 4 mps 761 mmHg 51%
13:00 +12°C° 0 mm 4 mps 761 mmHg 51%
14:00 +12°C° 0 mm 4 mps 760 mmHg 52%
15:00 +12°C° 0 mm 4 mps 760 mmHg 54%
16:00 +10°C° 0 mm 3 mps 760 mmHg 61%
17:00 +9°C° 0 mm 3 mps 761 mmHg 68%
18:00 +7°C° 0 mm 3 mps 761 mmHg 75%
19:00 +7°C° 0 mm 3 mps 761 mmHg 78%
20:00 +7°C° 0 mm 3 mps 761 mmHg 80%
21:00 +5°C° 0 mm 3 mps 762 mmHg 83%
22:00 +5°C° 0 mm 3 mps 762 mmHg 83%
23:00 +5°C° 0 mm 3 mps 762 mmHg 83%

Tomorrow, 5 August, Wednesday

Time Temperature Precipitation Wind Pressure Humidity
00:00 +5°C° 0 mm 3 mps 762 mmHg 83%
01:00 +5°C° 0 mm 3 mps 761 mmHg 82%
02:00 +4°C° 0 mm 3 mps 761 mmHg 81%
03:00 +4°C° 0 mm 3 mps 761 mmHg 80%
04:00 +4°C° 0 mm 3 mps 761 mmHg 78%
05:00 +3°C° 0 mm 3 mps 761 mmHg 77%
06:00 +3°C° 0 mm 3 mps 761 mmHg 75%
07:00 +5°C° 0 mm 3 mps 761 mmHg 69%
08:00 +7°C° 0 mm 3 mps 762 mmHg 63%
09:00 +7°C° 0 mm 4 mps 762 mmHg 56%
10:00 +8°C° 0 mm 4 mps 762 mmHg 53%
11:00 +10°C° 0 mm 3 mps 761 mmHg 49%
12:00 +11°C° 0 mm 3 mps 761 mmHg 46%
13:00 +12°C° 0 mm 3 mps 761 mmHg 45%
14:00 +12°C° 0 mm 3 mps 760 mmHg 45%
15:00 +12°C° 0 mm 3 mps 760 mmHg 44%
16:00 +11°C° 0 mm 3 mps 760 mmHg 51%
17:00 +8°C° 0 mm 4 mps 760 mmHg 57%
18:00 +6°C° 0 mm 4 mps 761 mmHg 64%
19:00 +6°C° 0 mm 4 mps 761 mmHg 67%
20:00 +6°C° 0 mm 4 mps 761 mmHg 70%
21:00 +5°C° 0 mm 5 mps 761 mmHg 74%
22:00 +5°C° 0 mm 4 mps 761 mmHg 74%
23:00 +5°C° 0 mm 4 mps 761 mmHg 74%

Day after tomorrow, 6 August, Thursday

Time Temperature Precipitation Wind Pressure Humidity
00:00 +5°C° 0 mm 4 mps 761 mmHg 74%
01:00 +4°C° 0 mm 4 mps 761 mmHg 73%
02:00 +4°C° 0 mm 4 mps 761 mmHg 73%
03:00 +4°C° 0 mm 4 mps 761 mmHg 72%
04:00 +4°C° 0 mm 4 mps 761 mmHg 72%
05:00 +4°C° 0 mm 4 mps 761 mmHg 72%
06:00 +4°C° 0 mm 4 mps 761 mmHg 72%
07:00 +5°C° 0 mm 4 mps 761 mmHg 67%
08:00 +6°C° 0 mm 5 mps 761 mmHg 63%
09:00 +7°C° 0 mm 5 mps 762 mmHg 59%
10:00 +8°C° 0 mm 5 mps 761 mmHg 57%
11:00 +9°C° 0 mm 5 mps 761 mmHg 54%
12:00 +10°C° 0 mm 5 mps 761 mmHg 52%
13:00 +10°C° 0 mm 5 mps 760 mmHg 51%
14:00 +10°C° 0 mm 5 mps 759 mmHg 51%
15:00 +10°C° 0 mm 5 mps 759 mmHg 51%
16:00 +11°C° 0 mm 4 mps 759 mmHg 54%
17:00 +10°C° 0 mm 4 mps 759 mmHg 57%
18:00 +8°C° 0 mm 4 mps 759 mmHg 60%
19:00 +8°C° 0 mm 4 mps 759 mmHg 62%
20:00 +8°C° 0 mm 5 mps 759 mmHg 63%
21:00 +7°C° 0 mm 5 mps 759 mmHg 64%
22:00 +7°C° 0 mm 4 mps 759 mmHg 65%
23:00 +7°C° 0 mm 4 mps 759 mmHg 66%

7 August, Friday

Time Temperature Precipitation Wind Pressure Humidity
00:00 +7°C° 0 mm 4 mps 759 mmHg 67%
01:00 +7°C° 0.2 mm 4 mps 758 mmHg 73%
02:00 +6°C° 0.2 mm 4 mps 758 mmHg 78%
03:00 +6°C° 0.2 mm 4 mps 757 mmHg 84%
04:00 +6°C° 0.2 mm 5 mps 757 mmHg 85%
05:00 +5°C° 0.2 mm 6 mps 757 mmHg 86%
06:00 +5°C° 0.2 mm 6 mps 757 mmHg 87%
07:00 +5°C° 0.3 mm 6 mps 756 mmHg 87%
08:00 +5°C° 0.3 mm 6 mps 756 mmHg 87%
09:00 +6°C° 0.3 mm 5 mps 756 mmHg 88%
10:00 +5°C° 0.8 mm 6 mps 755 mmHg 89%
11:00 +4°C° 0.8 mm 6 mps 755 mmHg 89%
12:00 +4°C° 0.8 mm 6 mps 754 mmHg 90%
13:00 +4°C° 1.2 mm 6 mps 754 mmHg 91%
14:00 +3°C° 1.2 mm 6 mps 753 mmHg 91%
15:00 +3°C° 1.2 mm 6 mps 753 mmHg 92%
16:00 +3°C° 0.8 mm 6 mps 752 mmHg 91%
17:00 +5°C° 0.8 mm 5 mps 752 mmHg 91%
18:00 +5°C° 0.8 mm 4 mps 752 mmHg 90%
19:00 +5°C° 0.4 mm 4 mps 752 mmHg 91%
20:00 +6°C° 0.4 mm 4 mps 752 mmHg 91%
21:00 +6°C° 0.4 mm 4 mps 752 mmHg 91%
22:00 +7°C° 0.4 mm 3 mps 752 mmHg 92%
23:00 +8°C° 0.4 mm 3 mps 752 mmHg 92%

8 August, Saturday

Time Temperature Precipitation Wind Pressure Humidity
00:00 +8°C° 0.4 mm 3 mps 751 mmHg 92%
01:00 +8°C° 0.4 mm 3 mps 751 mmHg 93%
02:00 +9°C° 0.4 mm 3 mps 751 mmHg 93%
03:00 +9°C° 0.4 mm 3 mps 750 mmHg 94%
04:00 +9°C° 0.6 mm 3 mps 751 mmHg 94%
05:00 +9°C° 0.7 mm 3 mps 751 mmHg 95%
06:00 +9°C° 0.7 mm 3 mps 752 mmHg 96%
07:00 +9°C° 0.4 mm 3 mps 752 mmHg 95%
08:00 +10°C° 0.4 mm 4 mps 752 mmHg 94%
09:00 +10°C° 0.4 mm 4 mps 753 mmHg 93%
10:00 +11°C° 0.2 mm 4 mps 753 mmHg 92%
11:00 +11°C° 0.2 mm 4 mps 753 mmHg 90%
12:00 +11°C° 0.2 mm 3 mps 753 mmHg 89%
13:00 +11°C° 0.1 mm 3 mps 753 mmHg 90%
14:00 +11°C° 0.1 mm 4 mps 753 mmHg 91%
15:00 +11°C° 0.1 mm 4 mps 753 mmHg 91%
16:00 +11°C° 0.1 mm 4 mps 754 mmHg 91%
17:00 +11°C° 0.1 mm 4 mps 754 mmHg 91%
18:00 +11°C° 0.1 mm 4 mps 755 mmHg 91%
19:00 +11°C° 0 mm 4 mps 755 mmHg 91%
20:00 +11°C° 0 mm 4 mps 756 mmHg 91%
21:00 +11°C° 0 mm 3 mps 756 mmHg 91%
22:00 +11°C° 0 mm 3 mps 756 mmHg 92%
23:00 +10°C° 0 mm 3 mps 756 mmHg 92%

9 August, Sunday

Time Temperature Precipitation Wind Pressure Humidity
00:00 +10°C° 0 mm 3 mps 756 mmHg 92%
01:00 +10°C° 0 mm 3 mps 756 mmHg 92%
02:00 +10°C° 0 mm 3 mps 756 mmHg 92%
03:00 +10°C° 0 mm 2 mps 757 mmHg 93%
04:00 +10°C° 0 mm 3 mps 757 mmHg 93%
05:00 +10°C° 0 mm 3 mps 757 mmHg 92%
06:00 +10°C° 0 mm 3 mps 758 mmHg 92%
07:00 +11°C° 0 mm 3 mps 758 mmHg 90%
08:00 +11°C° 0 mm 3 mps 758 mmHg 88%
09:00 +12°C° 0 mm 3 mps 759 mmHg 85%
10:00 +12°C° 0 mm 3 mps 759 mmHg 81%
11:00 +13°C° 0 mm 3 mps 759 mmHg 77%
12:00 +14°C° 0 mm 3 mps 758 mmHg 73%
13:00 +14°C° 0 mm 3 mps 758 mmHg 74%
14:00 +14°C° 0 mm 3 mps 758 mmHg 74%
15:00 +14°C° 0 mm 3 mps 758 mmHg 75%
16:00 +13°C° 0 mm 4 mps 759 mmHg 79%
17:00 +12°C° 0 mm 4 mps 759 mmHg 84%
18:00 +11°C° 0 mm 4 mps 760 mmHg 88%
19:00 +11°C° 0 mm 4 mps 760 mmHg 88%
20:00 +11°C° 0 mm 3 mps 760 mmHg 88%
21:00 +10°C° 0 mm 3 mps 761 mmHg 88%
22:00 +10°C° 0 mm 3 mps 761 mmHg 87%
23:00 +9°C° 0 mm 3 mps 761 mmHg 86%
Show more